Regional Weather Roundup
Issued by NWS Jackson, KY

Home | Current Version | Previous Version | Graphics & Text | Print | Product List | Glossary On
Versions: 1 2 3 4 5 6 7 8 9 10 11 12 13 14 15 16 17 18 19 20 21 22 23 24 25 26 27 28 29 30 31 32 33 34 35 36 37 38 39 40 41 42 43 44 45 46 47 48 49 50
000
ASUS43 KJKL 281510
RWRJKL

EAST KENTUCKY HOURLY WEATHER ROUNDUP
NATIONAL WEATHER SERVICE JACKSON KY
1100 AM EDT THU MAY 28 2015

NOTE: "FAIR" INDICATES FEW OR NO CLOUDS BELOW 12,000 FEET WITH
NO SIGNIFICANT WEATHER AND/OR OBSTRUCTIONS TO VISIBILITY.

* THESE REPORTS ARE NOT UNDER NWS QUALITY CONTROL AND MAY NOT
  REPORT WEATHER SUCH AS PRECIPITATION AND FOG.

KYZ079-080-083-085-087-088-110-112-115-119-120-281600
...EASTERN KENTUCKY...

CITY           SKY/WX    TMP DP  RH WIND       PRES   REMARKS
JACKSON        CLOUDY    72  63  73 CALM      30.26R
LONDON         CLOUDY    70  62  76 CALM      30.26S
SOMERSET*      CLOUDY    70  66  88 CALM      30.26F
MONTICELLO*    CLOUDY    73  67  81 CALM      30.28S
MIDDLESBORO*   PTSUNNY   73  68  84 CALM      30.26S
HARLAN APT*    PTSUNNY   73  61  64 MISG      30.27R
BLACK MTN*       N/A     72  63  73 E2          N/A
PIKEVILLE APT* PTSUNNY   73  64  73 CALM      30.26S
BIG SANDY*     PTSUNNY   75  64  68 E3        30.26S
MOREHEAD APT*  PTSUNNY   70  64  83 CALM      30.27R
$$

KYZ035-036-041-042-044-050-067-078-099-281600
...CENTRAL KENTUCKY...

CITY           SKY/WX    TMP DP  RH WIND       PRES   REMARKS
MT STERLING*   CLOUDY    70  64  83 NE3       30.25S
FLEMING/MASON* CLOUDY    70  64  83 E5        30.25S
DANVILLE*      CLOUDY    70  64  83 SE3       30.25S
RICHMOND*      CLOUDY    72  64  78 SE5       30.24S
LEXINGTON      CLOUDY    71  66  84 VRB3      30.24S
FRANKFORT      CLOUDY    68  64  87 CALM      30.23R
$$

KYZ091>093-OHZ055-061-077-WVZ005-015-034-035-042-281600
...SOUTHERN OHIO/WEST VIRGINIA...

CITY           SKY/WX    TMP DP  RH WIND       PRES   REMARKS
COVINGTON      CLOUDY    70  64  83 E3        30.23S HAZE
COLUMBUS       CLOUDY    73  64  73 E8        30.23S
DAYTON         PTSUNNY   74  65  73 E6        30.24S
WILMINGTON     CLOUDY    72  63  73 SE8       30.23R
HUNTINGTON     CLOUDY    73  62  68 VRB3      30.24S
CHARLESTON     PTSUNNY   76  61  59 E5        30.24S
PINEVILLE*     MOSUNNY   72  67  87 MISG      30.33S
BECKLEY        MOSUNNY   70  56  61 VRB5      30.32S
BLUEFIELD      PTSUNNY   77  60  55 CALM      30.32F
$$

VAZ002-007-008-TNZ017-027-036-066-071-281600
...SOUTHWEST VIRGINIA/EAST TENNESSEE...

CITY           SKY/WX    TMP DP  RH WIND       PRES   REMARKS
WISE*          CLOUDY    75  57  53 NE5       30.31F
JONESVILLE*    PTSUNNY   75  63  64 CALM      30.28R
ABINGDON*      PTSUNNY   75  64  70 CALM      30.28S
BRISTOL        MOSUNNY   76  63  64 SE3       30.26F
KNOXVILLE      CLOUDY    79  62  56 CALM      30.23F
OAK RIDGE      CLOUDY    75  66  73 CALM      30.24F
CROSSVILLE     CLOUDY    68  63  84 E5        30.27S
NASHVILLE      PTSUNNY   73  66  78 SE3       30.22F
$$

...KEY TO REMARKS...
VSB - VISIBILITY IN MILES
WCI - WIND CHILL INDEX
HX  - HEAT INDEX

$$


USA.gov is the U.S. government's official web portal to all federal, state and local government web resources and services.